FW3198 Weather Reports


time (UTC)temp
C
wind
direction
speed
KPH
gust
KPH
rain 1hr
cm
rain 24hr
cm
rain mn
cm
humidity
%
barometer
mb
20260504221557 25 0 0.0 3.2 0.00 0.00 0.00 39 1014.5
20260504220053 26 147 0.0 6.4 0.00 0.00 0.00 38 1014.4
20260504214547 27 0 0.0 4.8 0.00 0.00 0.00 37 1014.5
20260504213050 27 241 0.0 1.6 0.00 0.00 0.00 34 1014.5
20260504211554 26 0 0.0 1.6 0.00 0.00 0.00 37 1014.4
20260504204555 26 0 0.0 1.6 0.00 0.00 0.00 38 1014.8
20260504203050 26 302 0.0 3.2 0.00 0.00 0.00 40 1014.9
20260504201549 26 209 0.0 4.8 0.00 0.00 0.00 40 1015.1
20260504194548 27 0 1.6 8.0 0.00 0.00 0.00 34 1015.2
20260504193055 27 278 0.0 6.4 0.00 0.00 0.00 35 1015.6
20260504191605 27 352 1.6 4.8 0.00 0.00 0.00 35 1015.8
20260504190047 27 128 0.0 4.8 0.00 0.00 0.00 37 1016.1
20260504184543 26 0 0.0 3.2 0.00 0.00 0.00 35 1016.3
20260504183054 26 175 0.0 3.2 0.00 0.00 0.00 36 1016.5
20260504181546 26 90 1.6 4.8 0.00 0.00 0.00 35 1016.6
20260504180047 25 96 1.6 4.8 0.00 0.00 0.00 38 1016.7
20260504174551 25 48 3.2 6.4 0.00 0.00 0.00 37 1016.8
20260504173046 25 112 0.0 3.2 0.00 0.00 0.00 44 1016.8
20260504171549 24 265 1.6 4.8 0.00 0.00 0.00 39 1017.1
20260504120109 6 0 0.0 0.0 0.00 0.00 0.00 95 1018.3
20260504081552 7 0 0.0 0.0 0.00 0.00 0.00 93 1017.8
20260504044552 9 0 0.0 0.0 0.00 0.00 0.00 86 1018.7
20260504043110 9 0 0.0 0.0 0.00 0.00 0.00 85 1018.7
20260504041549 9 0 0.0 0.0 0.00 0.00 0.00 86 1018.8
20260504040049 10 0 0.0 0.0 0.00 0.00 0.00 86 1018.8
20260504034552 10 0 0.0 0.0 0.00 0.00 0.00 85 1018.9
20260504033059 10 0 0.0 0.0 0.00 0.00 0.00 82 1018.9
20260504031552 10 0 0.0 0.0 0.00 0.00 0.00 82 1018.7
20260504024547 11 0 0.0 0.0 0.00 0.00 0.00 78 1018.6
20260504023048 11 0 0.0 0.0 0.00 0.00 0.00 77 1018.5
20260504021549 11 0 0.0 0.0 0.00 0.00 0.00 74 1018.4
20260504020050 12 278 0.0 0.0 0.00 0.00 0.00 71 1018.1
20260504014549 12 0 0.0 0.0 0.00 0.00 0.00 69 1017.7
20260504013053 13 0 0.0 0.0 0.00 0.00 0.00 66 1017.6
20260504011552 13 0 0.0 0.0 0.00 0.00 0.00 65 1017.4
20260504010056 14 0 0.0 0.0 0.00 0.00 0.00 63 1017.4
20260504004549 15 0 0.0 0.0 0.00 0.00 0.00 61 1017.2
20260504003049 15 0 0.0 0.0 0.00 0.00 0.00 58 1017.1
20260504001543 16 0 0.0 0.0 0.00 0.00 0.00 56 1017.1
20260504000059 17 0 0.0 0.0 0.00 0.00 0.00 54 1017.0
20260503234552 17 0 0.0 0.0 0.00 0.00 0.00 52 1016.9
20260503233044 18 0 0.0 1.6 0.00 0.00 0.00 49 1017.1
20260503231543 18 0 0.0 0.0 0.00 0.00 0.00 50 1017.0
20260503230058 19 0 0.0 1.6 0.00 0.00 0.00 46 1017.1
20260503224546 20 0 0.0 1.6 0.00 0.00 0.00 45 1017.0
20260503223102 21 0 0.0 1.6 0.00 0.00 0.00 45 1016.9